User: anonymous   Login
Location: Cincinnati Observatory Center
(39.1389°N, 84.4225°W)
Time: 11:55:36
(UTC-04:00)
Language:

JAS-1B - Orbit

View from above orbital plane
View from above orbital plane
View from above satellite
View from above satellite

Ground track
Ground track

The orbit data is extracted from the following two-line orbital elements,

1 20480U 90013C   17178.84895002 -.00000034 +00000-0 -38920-5 0  9993
2 20480 099.0572 310.0230 0540363 006.9298 353.8903 12.83415491283048
Epoch (UTC): 27 June 2017 20:22:29
Eccentricity: 0.0540363
inclination: 99.0572°
perigee height: 911 km
apogee height: 1744 km
right ascension of ascending node: 310.0230°
argument of perigee: 6.9298°
revolutions per day: 12.83415491
mean anomaly at epoch: 353.8903°
orbit number at epoch: 28304

The dashed part of the orbit path shows where the satellite is in the earth's shadow,  

DLR